This demonstration page uses our WeatherBlox Daily Observations layout. Learn more.

39.29038, -76.61219

Hourly Observations for April 4, 2018

Temp ( °F °C ) Dew Point ( °F °C ) Humidity (%) Winds ( mph kmh ) Pressure ( in mb ) Visibility ( mi km ) Precip ( " mm )
12:54 am 00:54 undefined 48 8.9 46 7.8 93 93 undefined N/A 29.79 1009 N/A 0 0
1:54 am 01:54 undefined 48 8.9 46 7.8 93 93 undefined N/A 29.75 1007 N/A 0 0
2:54 am 02:54 undefined 49 9.4 47 8.3 93 93 undefined N/A 29.7 1006 N/A 0 0
3:54 am 03:54 undefined 49 9.4 47 8.3 93 93 undefined N/A 29.67 1005 N/A 0 0
4:54 am 04:54 undefined 49 9.4 48 8.9 97 97 undefined N/A 29.63 1003 N/A 0 0
5:54 am 05:54 undefined 49 9.4 48 8.9 97 97 undefined N/A 29.6 1002 N/A 0 0
6:54 am 06:54 undefined 49 9.4 49 9.4 100 100 undefined N/A 29.58 1002 N/A 0 0
7:54 am 07:54 undefined 51 10.6 50 10 96 96 undefined N/A 29.57 1002 N/A 0 0
8:54 am 08:54 undefined 52 11.1 51 10.6 97 97 undefined N/A 29.55 1001 N/A 0 0
9:54 am 09:54 undefined 53 11.7 51 10.6 93 93 undefined N/A 29.52 1000 N/A 0 0
10:54 am 10:54 undefined 61 16.1 56 13.3 84 84 undefined N/A 29.51 999 N/A 0 0
11:54 am 11:54 undefined 61 16.1 51 10.6 70 70 undefined N/A 29.54 1001 N/A 0 0
12:54 pm 12:54 undefined 57 13.9 42 5.6 58 58 undefined N/A 29.58 1002 N/A 0 0
1:54 pm 13:54 undefined 60 15.6 34 1.1 38 38 undefined N/A 29.62 1003 N/A 0 0
2:54 pm 14:54 undefined 59 15 26 -3.3 28 28 undefined N/A 29.65 1004 N/A 0 0
3:54 pm 15:54 undefined 58 14.4 22 -5.6 25 25 undefined N/A 29.71 1006 N/A 0 0
4:54 pm 16:54 undefined 55 12.8 21 -6.1 26 26 undefined N/A 29.72 1007 N/A 0 0
5:54 pm 17:54 undefined 52 11.1 19 -7.2 27 27 undefined N/A 29.76 1008 N/A 0 0
6:54 pm 18:54 undefined 50 10 17 -8.3 27 27 undefined N/A 29.83 1010 N/A 0 0
7:54 pm 19:54 undefined 48 8.9 17 -8.3 29 29 undefined N/A 29.87 1011 N/A 0 0
8:54 pm 20:54 undefined 47 8.3 19 -7.2 33 33 undefined N/A 29.93 1014 N/A 0 0
9:54 pm 21:54 undefined 46 7.8 18 -7.8 32 32 undefined N/A 29.96 1015 N/A 0 0
10:54 pm 22:54 undefined 44 6.7 19 -7.2 37 37 undefined N/A 30 1016 N/A 0 0
11:54 pm 23:54 undefined 43 6.1 17 -8.3 35 35 undefined N/A 30.01 1016 N/A 0 0

Powered by AerisWeather